User: anonymous   Login
Location: Hartman Creek State Park
(44.3257°N, 89.2134°W)
Time: 15:05:37
(UTC-05:00)
Language:

Cosmos 2263 Rocket - Orbit

View from above orbital plane
View from above orbital plane
View from above satellite
View from above satellite

Ground track
Ground track

The orbit data is extracted from the following two-line orbital elements,

1 22803U 93059B   17262.90538027 -.00000231 +00000-0 -91280-4 0  9995
2 22803 070.9907 049.8422 0019308 244.8713 115.0407 14.16779155241447
Epoch (UTC): 19 September 2017 21:43:44
Eccentricity: 0.0019308
inclination: 70.9907°
perigee height: 822 km
apogee height: 850 km
right ascension of ascending node: 49.8422°
argument of perigee: 244.8713°
revolutions per day: 14.16779155
mean anomaly at epoch: 115.0407°
orbit number at epoch: 24144

The dashed part of the orbit path shows where the satellite is in the earth's shadow,  

DLR